Date String (YYYY-MM-DD hh:mm:ss) UTC,Instrument flags,Ambient pressure (hPa),Sample flow (lpm),Bypass flow (lpm),Sample temperature (°C),Ambient temperature (°C),ASC tube jacket temperature (°C),LED temperature (°C),Box temperature (°C),Sample RH (%),Span deviation,Mass concentration (μg/m³),Mass concentration (μg/m³),Mass concentration (μg/m³)
DateTimeUTC,F1_M11,P_M11,Q1_M11,Q2_M11,T1_M11,T2_M11,T3_M11,T4_M11,T5_M11,U1_M11,ZSPAN_M11,X2_M11,X0_M11,X1_M11
2023-03-10 04:00:00,,0826.7,4.99,0.00,22.1,20.7,00.0,30.8,23.7,17.1,-000.6,0007.49,0012.01,0006.91
2023-03-10 04:01:00,,0826.7,5.00,0.00,22.0,20.5,00.0,30.8,23.6,17.1,-000.4,0007.67,0012.65,0007.08
2023-03-10 04:02:00,,0826.7,5.00,0.00,22.0,20.4,00.0,30.8,23.6,17.1,-000.5,0007.80,0013.09,0007.23
2023-03-10 04:03:00,,0826.7,5.01,0.00,22.0,20.3,00.0,30.8,23.6,17.1,-000.1,0007.98,0013.98,0007.41
2023-03-10 04:04:00,,0826.7,5.00,0.00,22.0,20.2,00.0,30.7,23.6,17.1,0000.2,0008.22,0014.26,0007.65
2023-03-10 04:05:00,,0826.7,5.00,0.00,21.9,20.1,00.0,30.7,23.6,17.2,-000.2,0008.53,0014.72,0007.96
2023-03-10 04:06:00,,0826.7,5.00,0.00,21.9,20.1,00.0,30.7,23.6,17.2,-000.2,0008.82,0015.00,0008.25
2023-03-10 04:07:00,,0826.7,5.00,0.00,21.9,20.1,00.0,30.7,23.6,17.2,-000.1,0009.07,0015.32,0008.47
2023-03-10 04:08:00,,0826.5,5.00,0.00,21.9,20.1,00.0,30.7,23.6,17.3,-000.2,0009.25,0015.65,0008.65
2023-03-10 04:09:00,,0826.5,5.00,0.00,21.9,20.1,00.0,30.7,23.6,17.4,0000.0,0009.44,0015.86,0008.81
2023-03-10 04:10:00,,0826.5,5.01,0.00,21.9,20.1,00.0,30.7,23.6,17.4,0000.2,0009.63,0016.05,0009.02
2023-03-10 04:11:00,,0826.5,5.00,0.00,21.9,20.1,00.0,30.7,23.6,17.4,-000.1,0009.83,0016.25,0009.23
2023-03-10 04:12:00,,0826.4,5.00,0.00,21.9,20.1,00.0,30.7,23.6,17.4,-000.5,0009.88,0015.83,0009.30
2023-03-10 04:13:00,,0826.5,5.01,0.00,21.9,20.2,00.0,30.7,23.6,17.4,-000.5,0009.96,0015.87,0009.37
2023-03-10 04:14:00,,0826.5,4.99,0.00,21.9,20.1,00.0,30.7,23.5,17.4,-000.7,0010.02,0015.45,0009.43
2023-03-10 04:15:00,,0826.5,4.99,0.00,21.8,20.0,00.0,30.6,23.5,17.4,-000.9,0009.91,0014.65,0009.34
2023-03-10 04:16:00,,0826.5,4.99,0.00,21.8,20.1,00.0,30.6,23.4,17.4,-000.6,0009.76,0014.43,0009.16
2023-03-10 04:17:00,,0826.5,5.02,0.00,21.9,21.0,00.0,30.6,23.7,17.3,-000.8,0009.59,0014.27,0008.99
2023-03-10 04:18:00,,0826.6,5.01,0.00,22.0,22.1,00.0,30.6,24.0,17.3,-001.1,0009.49,0014.44,0008.92
2023-03-10 04:19:00,,0826.5,5.01,0.00,22.1,22.6,00.0,30.6,24.1,17.2,-001.2,0009.39,0014.33,0008.83
2023-03-10 04:20:00,,0826.5,4.97,0.00,22.1,22.2,00.0,30.7,24.1,17.1,-001.6,0009.27,0014.81,0008.75
2023-03-10 04:21:00,,0826.6,5.00,0.00,22.1,21.7,00.0,30.7,24.0,17.0,-001.9,0009.18,0014.67,0008.67
2023-03-10 04:22:00,,0826.5,5.00,0.00,22.1,21.3,00.0,30.7,23.9,17.0,-001.9,0009.10,0014.57,0008.59
2023-03-10 04:23:00,,0826.4,4.99,0.00,22.1,21.1,00.0,30.8,23.9,17.0,-001.6,0009.06,0014.53,0008.55
2023-03-10 04:24:00,,0826.5,5.01,0.00,22.1,20.9,00.0,30.8,23.9,16.9,-001.6,0008.96,0014.10,0008.46
2023-03-10 04:25:00,,0826.4,5.01,0.00,22.1,20.7,00.0,30.8,23.8,16.7,-001.8,0008.81,0013.99,0008.31
2023-03-10 04:26:00,,0826.5,5.00,0.00,22.1,20.5,00.0,30.8,23.8,16.7,-001.8,0008.74,0015.39,0008.20
2023-03-10 04:27:00,,0826.5,4.99,0.00,22.0,20.4,00.0,30.8,23.7,16.7,-002.1,0008.68,0015.77,0008.13
2023-03-10 04:28:00,,0826.5,5.01,0.00,22.0,20.4,00.0,30.8,23.7,16.7,-001.8,0008.60,0015.98,0008.05
2023-03-10 04:29:00,,0826.5,4.99,0.00,22.0,20.3,00.0,30.8,23.7,16.6,-001.6,0008.48,0015.71,0007.90
2023-03-10 04:30:00,,0826.5,5.01,0.00,22.0,20.3,00.0,30.8,23.7,16.6,-001.6,0008.42,0015.79,0007.81
2023-03-10 04:31:00,,0826.5,4.98,0.00,22.0,20.2,00.0,30.8,23.7,16.6,-001.3,0008.37,0015.45,0007.75
2023-03-10 04:32:00,,0826.5,5.01,0.00,22.0,20.2,00.0,30.7,23.7,16.8,-001.1,0008.42,0015.73,0007.78
2023-03-10 04:33:00,,0826.5,5.00,0.00,22.0,20.2,00.0,30.7,23.7,16.8,-001.1,0008.51,0016.24,0007.86
2023-03-10 04:34:00,,0826.5,5.01,0.00,21.9,20.2,00.0,30.7,23.7,16.8,-001.5,0008.54,0016.46,0007.88
2023-03-10 04:35:00,,0826.4,5.00,0.00,21.9,20.2,00.0,30.7,23.7,16.7,-002.1,0008.58,0017.11,0007.92
2023-03-10 04:36:00,,0826.4,5.00,0.00,21.9,20.2,00.0,30.7,23.6,16.8,-002.0,0008.72,0017.23,0008.06
2023-03-10 04:37:00,,0826.4,4.99,0.00,21.9,20.2,00.0,30.7,23.7,16.8,-002.1,0008.94,0016.09,0008.24
2023-03-10 04:38:00,,0826.4,5.00,0.00,21.9,20.2,00.0,30.7,23.7,16.8,-002.1,0009.24,0015.78,0008.55
2023-03-10 04:39:00,,0826.4,5.00,0.00,21.9,20.1,00.0,30.7,23.6,16.7,-002.0,0009.69,0016.06,0008.99
2023-03-10 04:40:00,,0826.3,5.00,0.00,21.9,20.1,00.0,30.7,23.6,16.8,-001.3,0010.74,0017.37,0009.94
2023-03-10 04:41:00,,0826.3,5.00,0.00,21.9,20.1,00.0,30.7,23.6,16.8,-000.7,0011.90,0019.28,0011.07
2023-03-10 04:42:00,,0826.2,5.01,0.00,21.9,20.4,00.0,30.6,23.7,16.9,-000.3,0013.03,0020.37,0012.14
2023-03-10 04:43:00,,0826.2,4.99,0.00,22.0,21.6,00.0,30.6,23.9,16.8,0000.1,0013.69,0021.23,0012.77
2023-03-10 04:44:00,,0826.2,4.98,0.00,22.1,22.6,00.0,30.7,24.2,16.8,0000.3,0014.08,0021.40,0013.14
2023-03-10 04:45:00,,0826.2,4.99,0.00,22.2,22.7,00.0,30.7,24.2,16.7,0000.6,0014.38,0021.54,0013.46
2023-03-10 04:46:00,,0826.2,5.01,0.00,22.2,22.3,00.0,30.8,24.2,16.6,0000.6,0014.73,0021.39,0013.77
2023-03-10 04:47:00,,0826.2,5.01,0.00,22.2,21.9,00.0,30.8,24.1,16.6,0000.4,0014.99,0021.60,0014.03
2023-03-10 04:48:00,,0826.2,4.99,0.00,22.2,21.6,00.0,30.8,24.1,16.5,0000.6,0015.21,0021.93,0014.23
2023-03-10 04:49:00,,0826.2,5.00,0.00,22.2,21.3,00.0,30.8,24.1,16.5,0000.7,0015.27,0022.13,0014.31
2023-03-10 04:50:00,,0826.1,5.01,0.00,22.2,21.1,00.0,30.9,24.0,16.5,0000.7,0015.16,0022.61,0014.21
2023-03-10 04:51:00,,0826.1,5.00,0.00,22.2,20.9,00.0,30.9,24.0,16.5,0000.5,0014.49,0021.69,0013.63
2023-03-10 04:52:00,,0826.0,5.00,0.00,22.2,20.8,00.0,30.9,24.0,16.4,-000.1,0013.69,0020.00,0012.94
2023-03-10 04:53:00,,0826.0,5.01,0.00,22.2,20.7,00.0,30.9,24.0,16.4,-000.5,0013.00,0019.37,0012.29
2023-03-10 04:54:00,,0826.0,5.01,0.00,22.2,20.6,00.0,30.9,23.9,16.4,-001.5,0012.52,0018.63,0011.85
2023-03-10 04:55:00,,0826.0,5.01,0.00,22.2,20.5,00.0,30.9,23.9,16.4,-001.9,0012.33,0018.19,0011.70
2023-03-10 04:56:00,,0826.0,4.99,0.00,22.2,20.5,00.0,30.9,23.9,16.4,-002.0,0012.24,0018.08,0011.62
2023-03-10 04:57:00,,0826.0,5.00,0.00,22.1,20.4,00.0,30.9,23.9,16.4,-001.8,0012.18,0018.38,0011.57
2023-03-10 04:58:00,,0826.0,5.01,0.00,22.1,20.4,00.0,30.9,23.8,16.4,-001.6,0012.14,0019.68,0011.53
2023-03-10 04:59:00,,0825.9,5.01,0.00,22.1,20.4,00.0,30.9,23.8,16.4,-001.8,0012.09,0020.19,0011.49
